Regional Weather Roundup
Issued by NWS Boston, MA

Home | Current Version | Previous Version | Text Only | Print | Product List | Glossary On
Versions: 1 2 3 4 5 6 7 8 9 10 11 12 13 14 15 16 17 18 19 20 21 22 23 24 25 26 27 28 29 30 31 32 33 34 35 36 37 38 39 40 41 42 43 44 45 46 47 48 49 50
000
ASUS41 KBOX 010010
RWRBOX

REGIONAL WEATHER ROUNDUP
NATIONAL WEATHER SERVICE TAUNTON MA
800 PM EDT SAT APR 30 2016

NOTE:  "FAIR" INDICATES FEW OR NO CLOUDS BELOW 12,000 FEET WITH NO
SIGNIFICANT WEATHER AND/OR OBSTRUCTIONS TO VISIBILITY.  THE FOLLOWING
OBSERVATION LOCATIONS DO NOT REPORT PRESENT WEATHER...PROVINCETOWN...
SMITHFIELD...BLOCK ISLAND...KEENE...AND OXFORD.

MAZALL-010100-
EASTERN MASSACHUSETTS

CITY           SKY/WX    TMP DP  RH WIND       PRES   REMARKS
BOSTON         PTCLDY    52  34  50 S12       30.23R
6HR MIN TEMP:  51; 6HR MAX TEMP:  54;

BEVERLY        CLEAR     47  31  53 SE12      30.22R
LAWRENCE       CLEAR     50  31  48 VRB3      30.23R
BEDFORD        PTCLDY    54  34  46 S12       30.21R
BLUE HILL        N/A     49  31  49 S15G21    30.21R
NORWOOD        CLEAR     51  32  48 S9        30.24R
MARSHFIELD     CLEAR     48  37  66 S6        30.26R
PLYMOUTH       CLEAR     48  29  47 S6        30.26R
TAUNTON        CLEAR     50  27  40 S5        30.25R
NEW BEDFORD    CLEAR     46  35  65 SW7       30.26R
$$

MAZALL-010100-
CAPE COD AND THE ISLANDS

CITY           SKY/WX    TMP DP  RH WIND       PRES   REMARKS
FALMOUTH       CLEAR     45  34  65 S7        30.26R
HYANNIS        CLEAR     46  34  62 S5        30.24R
CHATHAM        CLEAR     44  38  79 SE6       30.25F
PROVINCETOWN   CLEAR     46  33  60 S5        30.26R
NANTUCKET      CLEAR     44  35  70 E5        30.25S
MARTHAS VNYRD  CLEAR     45  34  65 S3        30.26R
$$

MAZALL-010100-
CENTRAL AND WESTERN MASSACHUSETTS

CITY           SKY/WX    TMP DP  RH WIND       PRES   REMARKS
WORCESTER      PTCLDY    52  32  46 S13       30.21R
6HR MIN TEMP:  52; 6HR MAX TEMP:  61;

FITCHBURG      CLEAR     57  31  37 S13       30.20R
ORANGE         CLEAR     59  37  44 SW7       30.16R
SPRINGFIELD    PTCLDY    57  38  48 S15       30.18R
WESTFIELD      PTCLDY    57  36  45 S13       30.18R
NORTH ADAMS    CLOUDY    59  37  44 W7        30.17R
PITTSFIELD     PTCLDY    56  37  49 SW3       30.17R
$$

RIZALL-010100-
RHODE ISLAND

CITY           SKY/WX    TMP DP  RH WIND       PRES   REMARKS
PROVIDENCE     PTCLDY    47  34  60 S8        30.27R
6HR MIN TEMP:  47; 6HR MAX TEMP:  61;

NEWPORT        CLEAR     45  33  63 S6        30.26R
BLOCK ISLAND   CLOUDY    45  34  65 S5        30.28R
SMITHFIELD       N/A     46  28  49 S6        30.24R
WESTERLY       CLOUDY    47  35  63 S6        30.28R
$$

CTZALL-010100-
CONNECTICUT

CITY           SKY/WX    TMP DP  RH WIND       PRES   REMARKS
BRADLEY INTL   PTCLDY    56  36  47 S14       30.20R
6HR MIN TEMP:  56; 6HR MAX TEMP:  67;

HARTFORD       PTCLDY    56  35  45 S12       30.23R
BRIDGEPORT     CLEAR     53  38  56 S8        30.25R
DANBURY        CLEAR     56  39  53 S8        30.22R
GROTON         PTCLDY    47  43  86 SE8       30.26R
NEW HAVEN      PTCLDY    50  38  63 S9        30.25R
CHESTER        FAIR      50  36  57 S8        30.25R
MERIDEN        PTCLDY    52  32  46 S10G17    30.24R
WILLIMANTIC    PTCLDY    52  32  46 S9        30.24R
OXFORD         PTCLDY    52  37  58 S10       30.24
$$

MEZ002-015-021-024-NHZ003-005-008-011-012-014-VTZ005-008-010100-
NORTHERN NEW ENGLAND

CITY           SKY/WX    TMP DP  RH WIND       PRES   REMARKS
PORTLAND ME    MOCLDY    46  37  71 S9        30.23R
6HR MIN TEMP:  46; 6HR MAX TEMP:  55;

BANGOR ME      PTCLDY    52  35  52 S8        30.20R
CONCORD NH     CLEAR     54  30  40 E7        30.18R
MANCHESTER NH  MOCLDY    55  24  30 SE12      30.18R
NASHUA NH      PTCLDY    55  29  36 SE7       30.20R
PORTSMOUTH NH  CLEAR     46  36  69 SE12      30.21R
JAFFREY NH     CLEAR     56  33  42 SE7       30.17R
KEENE NH       PTCLDY    57  37  47 CALM      30.17R
BURLINGTON VT  FAIR      54  22  28 NW8       30.20R
MT. WASHINGTON PTCLDY    32  14  47 W6          N/A  WCI  26
$$

NYZ052-076-010100-
EASTERN NEW YORK

CITY           SKY/WX    TMP DP  RH WIND       PRES   REMARKS
ALBANY         MOCLDY    60  37  42 SW9       30.17R
6HR MIN TEMP:  60; 6HR MAX TEMP:  66;

NEW YORK CITY  PTCLDY    53  39  59 S10       30.24R
6HR MIN TEMP:  53; 6HR MAX TEMP:  63;

$$

ANZALL-010100-
MARINE OBSERVATIONS

STATION/POSITION TIME  TEMP    WIND        PRES    VSBY  WAVE
                       AIR SEA DIR/SP/G                  HT/PER
                 (UTC) (F)     (DEG/KT/KT) (MB)    (MI)  (FT/S)
BOSTON BUOY      2350   47 47  140/ 14/ 17 1022.7R         2/ 3
BUZZARDS BAY     2300   46     150/  9/ 10 1024.7F
NANTUCKET SOUND  2350   46 50  130/ 12/ 14 1023.9F         2/ 4
MASS BAY-STELLWA 2304   46 46                N/A    1 7/8  3/ 3
ISLE OF SHOALS   2300   46     160/ 15/ 17 1022.7S
S OF BLOCK IS    NOT AVBL
$$

......................KEY.........................
  SKY/WX - SKY CONDITION/PRESENT WEATHER
  TMP    - TEMPERATURE IN FAHRENHEIT
  DWPT   - DEWPOINT IN FAHRENHEIT
  RH     - RELATIVE HUMIDITY IN PERCENT
  WIND   - DIRECTION AND SPEED IN MPH
  PRES   - MEAN SEA LEVEL PRESSURE IN INCHES OF HG
  WCI    - WIND CHILL INDEX
  VSB    - VISIBILITY IN MILES
  HX     - HEAT INDEX
  TC     - TEMPERATURE IN CELSIUS
  VRB    - VARIABLE WIND DIRECTION
  N/A    - NOT AVAILABLE



USA.gov is the U.S. government's official web portal to all federal, state and local government web resources and services.